Location: Neuvy Saint Sepulchre
(46.5953°N, 1.8122°E)
Time: 15:22:35
(UTC+02:00)

ISS - Pass Details

Date: 08 May 2026
Orbit: 414 x 424 km, 51.6° (Epoch: 21 May)

Event Time Altitude Azimuth Distance (km) Brightness Sun altitude
Exits shadow 02:34:25 21° 58° (ENE) 1,013 -1.4 -25.6°
Drops below altitude 10° 02:35:50 10° 73° (ENE) 1,498 -0.6 -25.5°
Sets 02:38:03 0° 83° (E) 2,363 0.3 -25.4°
